[TLELIST] Archives

 

[TLELIST] Current TLEs

March 11th 2024 PST

HST 1 20580U 90037B 24070.96423709 .00005467 00000-0 26535-3 0 9993 2 20580 28.4676 282.4726 0003052 46.1946 313.8899 15.16253115662365 ISS (ZARYA) 1 25544U 98067A 24071.37997958 .00013428 00000-0 24434-3 0 9999 2 25544 51.6404 80.1417 0006156 353.4782 152.6553 15.49814699443388 CXO 1 25867U 99040B 24072.66974846 .00000940 00000-0 00000-0 0 9998 2 25867 39.1735 163.6302 8969582 289.1772 0.5402 0.37809409 14200 ...Continue Reading

[TLELIST] Current TLEs

March 10th 2024 PST

HST 1 20580U 90037B 24069.91109996 .00006043 00000-0 29443-3 0 9997 2 20580 28.4678 289.5125 0003026 36.2709 323.8087 15.16242228661942 ISS (ZARYA) 1 25544U 98067A 24070.34470360 .00013554 00000-0 24679-3 0 9999 2 25544 51.6413 85.2691 0006127 349.8475 136.3747 15.49786421443222 CXO 1 25867U 99040B 24072.66964136 .00000940 00000-0 00000+0 0 9998 2 25867 39.1732 163.6389 8969583 289.1678 0.5270 0.37811635 25353 ...Continue Reading

[TLELIST] Current TLEs

March 10th 2024 PST

HST 1 20580U 90037B 24069.91109996 .00006043 00000-0 29443-3 0 9997 2 20580 28.4678 289.5125 0003026 36.2709 323.8087 15.16242228661942 ISS (ZARYA) 1 25544U 98067A 24070.34470360 .00013554 00000-0 24679-3 0 9999 2 25544 51.6413 85.2691 0006127 349.8475 136.3747 15.49786421443222 CXO 1 25867U 99040B 24072.66964136 .00000940 00000-0 00000+0 0 9998 2 25867 39.1732 163.6389 8969583 289.1678 0.5270 0.37811635 25353 ...Continue Reading

[TLELIST] Current TLEs

March 10th 2024 PST

HST 1 20580U 90037B 24069.91109996 .00006043 00000-0 29443-3 0 9997 2 20580 28.4678 289.5125 0003026 36.2709 323.8087 15.16242228661942 ISS (ZARYA) 1 25544U 98067A 24070.34470360 .00013554 00000-0 24679-3 0 9999 2 25544 51.6413 85.2691 0006127 349.8475 136.3747 15.49786421443222 CXO 1 25867U 99040B 24072.66964136 .00000940 00000-0 00000+0 0 9998 2 25867 39.1732 163.6389 8969583 289.1678 0.5270 0.37811635 25353 ...Continue Reading

[TLELIST] Current TLEs

March 10th 2024 PST

HST 1 20580U 90037B 24069.91109996 .00006043 00000-0 29443-3 0 9997 2 20580 28.4678 289.5125 0003026 36.2709 323.8087 15.16242228661942 ISS (ZARYA) 1 25544U 98067A 24070.34470360 .00013554 00000-0 24679-3 0 9999 2 25544 51.6413 85.2691 0006127 349.8475 136.3747 15.49786421443222 CXO 1 25867U 99040B 24072.66964136 .00000940 00000-0 00000+0 0 9998 2 25867 39.1732 163.6389 8969583 289.1678 0.5270 0.37811635 25353 ...Continue Reading

[TLELIST] Current TLEs

March 9th 2024 PST

HST 1 20580U 90037B 24068.92377658 .00005648 00000-0 27467-3 0 9993 2 20580 28.4681 296.1126 0002997 25.6095 334.4645 15.16229630661790 ISS (ZARYA) 1 25544U 98067A 24069.23963816 .00013730 00000-0 25016-3 0 9990 2 25544 51.6418 90.7424 0005741 343.9724 92.8274 15.49756209443058 CXO 1 25867U 99040B 24070.02617178 .00001092 00000-0 00000+0 0 9996 2 25867 39.1176 163.9735 8967302 288.9231 0.6120 0.37806651 25348 ...Continue Reading

[TLELIST] Current TLEs

March 9th 2024 PST

HST 1 20580U 90037B 24068.92377658 .00005648 00000-0 27467-3 0 9993 2 20580 28.4681 296.1126 0002997 25.6095 334.4645 15.16229630661790 ISS (ZARYA) 1 25544U 98067A 24069.23963816 .00013730 00000-0 25016-3 0 9990 2 25544 51.6418 90.7424 0005741 343.9724 92.8274 15.49756209443058 CXO 1 25867U 99040B 24070.02617178 .00001092 00000-0 00000+0 0 9996 2 25867 39.1176 163.9735 8967302 288.9231 0.6120 0.37806651 25348 ...Continue Reading

[TLELIST] Current TLEs

March 8th 2024 PST

HST 1 20580U 90037B 24067.34404284 .00006178 00000-0 30151-3 0 9997 2 20580 28.4686 306.6723 0002901 9.7519 350.3130 15.16212077661551 ISS (ZARYA) 1 25544U 98067A 24068.34399637 .00013954 00000-0 25433-3 0 9996 2 25544 51.6416 95.1785 0005854 339.4735 137.1720 15.49731600442913 CXO 1 25867U 99040B 24070.02617178 .00001092 00000-0 00000+0 0 9996 2 25867 39.1176 163.9735 8967302 288.9231 0.6120 0.37806651 25348 ...Continue Reading

[TLELIST] Current TLEs

March 8th 2024 PST

HST 1 20580U 90037B 24067.34404284 .00006178 00000-0 30151-3 0 9997 2 20580 28.4686 306.6723 0002901 9.7519 350.3130 15.16212077661551 ISS (ZARYA) 1 25544U 98067A 24068.34399637 .00013954 00000-0 25433-3 0 9996 2 25544 51.6416 95.1785 0005854 339.4735 137.1720 15.49731600442913 CXO 1 25867U 99040B 24070.02617178 .00001092 00000-0 00000+0 0 9996 2 25867 39.1176 163.9735 8967302 288.9231 0.6120 0.37806651 25348 ...Continue Reading

[TLELIST] Current TLEs

March 7th 2024 PST

HST 1 20580U 90037B 24067.08075195 .00006091 00000-0 29714-3 0 9990 2 20580 28.4687 308.4324 0002896 6.9802 353.0830 15.16208622661778 ISS (ZARYA) 1 25544U 98067A 24067.37790297 .00014521 00000-0 26457-3 0 9993 2 25544 51.6412 99.9639 0005680 335.2557 148.0116 15.49704815442763 CXO 1 25867U 99040B 24067.38083427 .00001175 00000-0 00000+0 0 9997 2 25867 39.0742 164.2328 8967865 288.7517 0.3763 0.37808367 25332 ...Continue Reading
  • This mailing list is a public mailing list - anyone may join or leave, at any time.
  • This mailing list is announce-only.

International Space Station (ISS) / Hubble Space Telescope (HST) / Chandra X-Ray Observatory Orbital Data via EMAIL

Privacy Policy:

Private list